TimePST,TemperatureF,Dew PointF,Humidity,Sea Level PressureIn,VisibilityMPH,Wind Direction,Wind SpeedMPH,Gust SpeedMPH,PrecipitationIn,Events,Conditions,WindDirDegrees,DateUTC
12:53 AM,21.0,12.9,71,30.30,10.0,Calm,Calm,-,N/A,,Clear,0,2013-02-01 08:53:00
2:53 AM,19.0,12.0,74,30.30,10.0,South,3.5,-,N/A,,Clear,190,2013-02-01 10:53:00
3:53 AM,18.0,10.9,74,30.30,10.0,Calm,Calm,-,N/A,,Clear,0,2013-02-01 11:53:00
4:53 AM,18.0,10.0,71,30.31,10.0,Calm,Calm,-,N/A,,Clear,0,2013-02-01 12:53:00
5:53 AM,17.1,10.0,74,30.34,10.0,South,3.5,-,N/A,,Clear,190,2013-02-01 13:53:00
6:53 AM,16.0,9.0,74,30.37,10.0,SSW,3.5,-,N/A,,Clear,200,2013-02-01 14:53:00
7:53 AM,16.0,10.0,77,30.40,10.0,Calm,Calm,-,N/A,,Clear,0,2013-02-01 15:53:00
8:53 AM,23.0,12.9,65,30.40,10.0,Calm,Calm,-,N/A,,Clear,0,2013-02-01 16:53:00
9:53 AM,32.0,14.0,48,30.35,10.0,South,3.5,-,N/A,,Clear,170,2013-02-01 17:53:00
10:53 AM,43.0,12.9,30,30.32,10.0,ENE,3.5,-,N/A,,Clear,60,2013-02-01 18:53:00
11:53 AM,45.0,18.0,34,30.30,10.0,NNE,5.8,-,N/A,,Clear,30,2013-02-01 19:53:00
12:53 PM,44.1,21.9,42,30.28,10.0,NNE,9.2,-,N/A,,Clear,30,2013-02-01 20:53:00
1:53 PM,46.0,24.1,42,30.26,10.0,NE,8.1,-,N/A,,Clear,40,2013-02-01 21:53:00
2:53 PM,46.9,25.0,42,30.26,10.0,NNE,6.9,-,N/A,,Clear,30,2013-02-01 22:53:00
3:53 PM,46.0,26.1,46,30.27,10.0,North,3.5,-,N/A,,Clear,10,2013-02-01 23:53:00
4:53 PM,39.0,26.1,60,30.30,10.0,Calm,Calm,-,N/A,,Clear,0,2013-02-02 00:53:00
5:53 PM,35.1,24.1,64,30.34,10.0,Calm,Calm,-,N/A,,Clear,0,2013-02-02 01:53:00
6:53 PM,32.0,21.9,66,30.38,10.0,Calm,Calm,-,N/A,,Clear,0,2013-02-02 02:53:00
7:53 PM,30.0,21.0,69,30.41,10.0,South,3.5,-,N/A,,Clear,190,2013-02-02 03:53:00
8:53 PM,28.0,19.9,72,30.40,10.0,Calm,Calm,-,N/A,,Clear,0,2013-02-02 04:53:00
9:53 PM,28.0,19.9,72,30.37,10.0,Calm,Calm,-,N/A,,Clear,0,2013-02-02 05:53:00
10:53 PM,27.0,19.0,72,30.34,10.0,Calm,Calm,-,N/A,,Clear,0,2013-02-02 06:53:00
11:53 PM,26.1,18.0,71,30.33,10.0,Calm,Calm,-,N/A,,Clear,0,2013-02-02 07:53:00